| time (UTC) | temp F | wind direction | speed knots | gust knots | rain 1hr in | rain 24hr in | rain mn in | humidity % | barometer mb |
| 20260506143045 | 56 | 189 | 15.6 | 27.8 | 0.00 | 0.00 | 0.00 | 91 | 1011.5 |
| 20260506142543 | 56 | 219 | 15.6 | 26.1 | 0.00 | 0.00 | 0.00 | 92 | 1011.5 |
| 20260506142044 | 56 | 175 | 18.2 | 28.7 | 0.00 | 0.00 | 0.00 | 92 | 1011.7 |
| 20260506141542 | 56 | 192 | 18.2 | 26.1 | 0.00 | 0.00 | 0.00 | 92 | 1012.0 |
| 20260506141042 | 56 | 182 | 18.2 | 29.5 | 0.00 | 0.00 | 0.00 | 91 | 1012.1 |
| 20260506140548 | 56 | 209 | 17.4 | 29.5 | 0.00 | 0.00 | 0.00 | 92 | 1012.0 |
| 20260506140043 | 56 | 203 | 19.1 | 26.1 | 0.00 | 0.00 | 0.00 | 92 | 1012.0 |
| 20260506135541 | 56 | 209 | 18.2 | 28.7 | 0.00 | 0.00 | 0.00 | 92 | 1012.2 |
| 20260506135041 | 56 | 203 | 18.2 | 28.7 | 0.00 | 0.00 | 0.00 | 92 | 1012.2 |
| 20260506134541 | 56 | 204 | 17.4 | 27.8 | 0.00 | 0.00 | 0.00 | 92 | 1012.1 |
| 20260506134141 | 56 | 220 | 19.1 | 27.8 | 0.00 | 0.00 | 0.00 | 92 | 1012.3 |
| 20260506133540 | 56 | 202 | 18.2 | 29.5 | 0.00 | 0.00 | 0.00 | 92 | 1012.3 |
| 20260506133044 | 56 | 211 | 19.1 | 29.5 | 0.00 | 0.00 | 0.00 | 92 | 1012.2 |
| 20260506132543 | 56 | 201 | 20.0 | 31.3 | 0.00 | 0.00 | 0.00 | 92 | 1012.1 |
| 20260506132043 | 56 | 198 | 19.1 | 26.9 | 0.00 | 0.00 | 0.00 | 92 | 1012.2 |
| 20260506131546 | 56 | 177 | 19.1 | 26.9 | 0.00 | 0.00 | 0.00 | 92 | 1012.1 |
| 20260506131040 | 55 | 203 | 19.1 | 26.9 | 0.00 | 0.00 | 0.00 | 93 | 1012.1 |
| 20260506130543 | 55 | 188 | 18.2 | 24.3 | 0.00 | 0.00 | 0.00 | 93 | 1012.2 |
| 20260506130040 | 55 | 198 | 18.2 | 26.1 | 0.00 | 0.00 | 0.00 | 93 | 1012.0 |
| 20260506125539 | 55 | 204 | 18.2 | 26.1 | 0.00 | 0.00 | 0.00 | 92 | 1012.0 |
| 20260506125038 | 55 | 205 | 17.4 | 26.1 | 0.00 | 0.00 | 0.00 | 92 | 1012.2 |
| 20260506124539 | 55 | 198 | 18.2 | 26.1 | 0.00 | 0.00 | 0.00 | 92 | 1012.1 |
| 20260506124040 | 55 | 199 | 17.4 | 26.1 | 0.00 | 0.00 | 0.00 | 92 | 1012.2 |
| 20260506123540 | 55 | 206 | 16.5 | 22.6 | 0.00 | 0.00 | 0.00 | 92 | 1012.2 |
| 20260506123038 | 55 | 200 | 16.5 | 26.9 | 0.00 | 0.00 | 0.00 | 92 | 1012.4 |
| 20260506122538 | 56 | 217 | 17.4 | 26.9 | 0.00 | 0.00 | 0.00 | 92 | 1012.5 |
| 20260506122037 | 56 | 165 | 17.4 | 26.1 | 0.00 | 0.00 | 0.00 | 92 | 1012.4 |
| 20260506121536 | 55 | 218 | 18.2 | 26.1 | 0.00 | 0.00 | 0.00 | 93 | 1012.2 |
| 20260506121039 | 55 | 177 | 18.2 | 25.2 | 0.00 | 0.00 | 0.00 | 93 | 1012.1 |
| 20260506120536 | 55 | 202 | 17.4 | 25.2 | 0.00 | 0.00 | 0.00 | 93 | 1012.3 |
| 20260506120040 | 55 | 170 | 19.1 | 26.9 | 0.00 | 0.00 | 0.00 | 93 | 1012.3 |
| 20260506115536 | 55 | 194 | 17.4 | 26.1 | 0.00 | 0.00 | 0.00 | 93 | 1012.3 |
| 20260506115136 | 55 | 190 | 16.5 | 26.1 | 0.00 | 0.00 | 0.00 | 93 | 1012.3 |
| 20260506114536 | 55 | 200 | 17.4 | 26.9 | 0.00 | 0.00 | 0.00 | 93 | 1012.3 |
| 20260506114036 | 55 | 200 | 17.4 | 26.1 | 0.00 | 0.00 | 0.00 | 93 | 1012.3 |
| 20260506113535 | 55 | 201 | 19.1 | 26.1 | 0.00 | 0.00 | 0.00 | 93 | 1012.2 |
| 20260506113040 | 55 | 211 | 19.1 | 25.2 | 0.00 | 0.00 | 0.00 | 93 | 1012.2 |
| 20260506112535 | 55 | 202 | 18.2 | 26.1 | 0.00 | 0.00 | 0.00 | 93 | 1012.0 |
| 20260506112037 | 55 | 217 | 17.4 | 25.2 | 0.00 | 0.00 | 0.00 | 93 | 1012.1 |
| 20260506111533 | 55 | 218 | 16.5 | 25.2 | 0.00 | 0.00 | 0.00 | 93 | 1012.1 |
| 20260506111034 | 55 | 190 | 17.4 | 23.5 | 0.00 | 0.00 | 0.00 | 94 | 1012.3 |
| 20260506110534 | 55 | 171 | 16.5 | 23.5 | 0.00 | 0.00 | 0.00 | 94 | 1012.3 |
| 20260506110035 | 55 | 182 | 16.5 | 24.3 | 0.00 | 0.00 | 0.00 | 94 | 1012.4 |
| 20260506105534 | 55 | 192 | 18.2 | 26.1 | 0.00 | 0.00 | 0.00 | 94 | 1012.3 |
| 20260506105035 | 55 | 248 | 16.5 | 23.5 | 0.00 | 0.00 | 0.00 | 94 | 1012.3 |
| 20260506104534 | 55 | 247 | 17.4 | 27.8 | 0.00 | 0.00 | 0.00 | 93 | 1012.2 |
| 20260506104032 | 55 | 197 | 17.4 | 27.8 | 0.00 | 0.00 | 0.00 | 93 | 1012.1 |
| 20260506103531 | 55 | 217 | 17.4 | 26.9 | 0.00 | 0.00 | 0.00 | 93 | 1012.1 |
| 20260506103031 | 55 | 197 | 17.4 | 26.9 | 0.00 | 0.00 | 0.00 | 93 | 1012.1 |
| 20260506102530 | 55 | 192 | 19.1 | 26.9 | 0.00 | 0.00 | 0.00 | 93 | 1012.1 |
| 20260506102030 | 55 | 203 | 17.4 | 26.9 | 0.00 | 0.00 | 0.00 | 93 | 1012.0 |
| 20260506101530 | 55 | 196 | 18.2 | 26.9 | 0.00 | 0.00 | 0.00 | 93 | 1012.1 |
| 20260506101029 | 55 | 196 | 19.1 | 28.7 | 0.00 | 0.00 | 0.00 | 93 | 1012.0 |
| 20260506100529 | 55 | 200 | 20.0 | 27.8 | 0.00 | 0.00 | 0.00 | 93 | 1011.9 |
| 20260506100028 | 55 | 213 | 20.0 | 26.9 | 0.00 | 0.00 | 0.00 | 93 | 1012.1 |
| 20260506095527 | 55 | 196 | 20.0 | 26.9 | 0.00 | 0.00 | 0.00 | 93 | 1012.0 |
| 20260506095027 | 55 | 181 | 19.1 | 26.9 | 0.00 | 0.00 | 0.00 | 93 | 1011.9 |
| 20260506094526 | 55 | 211 | 18.2 | 26.9 | 0.00 | 0.00 | 0.00 | 93 | 1012.0 |
| 20260506094024 | 55 | 205 | 20.0 | 27.8 | 0.00 | 0.00 | 0.00 | 93 | 1012.0 |
| 20260506093524 | 55 | 185 | 19.1 | 27.8 | 0.00 | 0.00 | 0.00 | 93 | 1011.9 |
| 20260506093023 | 55 | 198 | 19.1 | 28.7 | 0.00 | 0.00 | 0.00 | 93 | 1012.0 |
| 20260506092522 | 55 | 201 | 18.2 | 25.2 | 0.00 | 0.00 | 0.00 | 93 | 1011.9 |
| 20260506092023 | 55 | 215 | 16.5 | 25.2 | 0.00 | 0.00 | 0.00 | 93 | 1011.9 |
| 20260506091521 | 55 | 193 | 18.2 | 28.7 | 0.00 | 0.00 | 0.00 | 93 | 1011.9 |
| 20260506091019 | 55 | 194 | 17.4 | 25.2 | 0.00 | 0.00 | 0.00 | 93 | 1012.0 |
| 20260506090519 | 55 | 196 | 19.1 | 26.9 | 0.00 | 0.00 | 0.00 | 93 | 1012.1 |
| 20260506090022 | 55 | 196 | 17.4 | 26.1 | 0.00 | 0.00 | 0.00 | 93 | 1012.2 |
| 20260506085518 | 55 | 209 | 19.1 | 26.1 | 0.00 | 0.00 | 0.00 | 92 | 1012.2 |
| 20260506085018 | 55 | 192 | 17.4 | 25.2 | 0.00 | 0.00 | 0.00 | 92 | 1012.2 |
| 20260506084520 | 55 | 197 | 18.2 | 26.1 | 0.00 | 0.00 | 0.00 | 92 | 1012.2 |
| 20260506084018 | 55 | 198 | 17.4 | 26.1 | 0.00 | 0.00 | 0.00 | 92 | 1012.2 |
| 20260506083518 | 55 | 194 | 16.5 | 25.2 | 0.00 | 0.00 | 0.00 | 92 | 1012.3 |
| 20260506083017 | 55 | 199 | 17.4 | 25.2 | 0.00 | 0.00 | 0.00 | 92 | 1012.3 |
| 20260506082517 | 55 | 219 | 17.4 | 25.2 | 0.00 | 0.00 | 0.00 | 92 | 1012.4 |
| 20260506082017 | 55 | 206 | 17.4 | 26.1 | 0.00 | 0.00 | 0.00 | 92 | 1012.4 |
| 20260506081520 | 55 | 196 | 19.1 | 26.1 | 0.00 | 0.00 | 0.00 | 92 | 1012.4 |
| 20260506081018 | 55 | 171 | 18.2 | 28.7 | 0.00 | 0.00 | 0.00 | 92 | 1012.3 |
| 20260506080518 | 55 | 186 | 19.1 | 28.7 | 0.00 | 0.00 | 0.00 | 92 | 1012.4 |
| 20260506073511 | 55 | 198 | 17.4 | 26.9 | 0.00 | 0.00 | 0.00 | 92 | 1012.3 |
| 20260506073011 | 55 | 198 | 15.6 | 26.9 | 0.00 | 0.00 | 0.00 | 91 | 1012.2 |
| 20260506072512 | 55 | 191 | 19.1 | 29.5 | 0.00 | 0.00 | 0.00 | 91 | 1012.4 |
| 20260506072010 | 55 | 197 | 16.5 | 26.1 | 0.00 | 0.00 | 0.00 | 91 | 1012.5 |
| 20260506071509 | 55 | 200 | 18.2 | 26.1 | 0.00 | 0.00 | 0.00 | 91 | 1012.5 |
| 20260506071008 | 55 | 186 | 18.2 | 26.1 | 0.00 | 0.00 | 0.00 | 91 | 1012.5 |
| 20260506070511 | 55 | 186 | 17.4 | 27.8 | 0.00 | 0.00 | 0.00 | 91 | 1012.4 |
| 20260506062507 | 55 | 214 | 19.1 | 26.1 | 0.00 | 0.00 | 0.00 | 90 | 1012.3 |
| 20260506062005 | 55 | 188 | 17.4 | 26.1 | 0.00 | 0.00 | 0.00 | 90 | 1012.4 |
| 20260506061505 | 55 | 186 | 18.2 | 24.3 | 0.00 | 0.00 | 0.00 | 91 | 1012.4 |
| 20260506061007 | 55 | 189 | 17.4 | 26.1 | 0.00 | 0.00 | 0.00 | 90 | 1012.4 |
| 20260506060504 | 55 | 211 | 18.2 | 26.1 | 0.00 | 0.00 | 0.00 | 90 | 1012.4 |
| 20260506051057 | 56 | 178 | 17.4 | 26.1 | 0.00 | 0.00 | 0.00 | 89 | 1012.9 |
| 20260506050556 | 56 | 208 | 19.1 | 26.9 | 0.00 | 0.00 | 0.00 | 88 | 1012.9 |
| 20260506050107 | 56 | 200 | 19.1 | 26.9 | 0.00 | 0.00 | 0.00 | 88 | 1012.9 |
| 20260506045053 | 57 | 207 | 19.1 | 29.5 | 0.00 | 0.00 | 0.00 | 88 | 1013.0 |
| 20260506044554 | 57 | 198 | 20.0 | 28.7 | 0.00 | 0.00 | 0.00 | 88 | 1012.9 |
| 20260506044052 | 57 | 216 | 19.1 | 27.8 | 0.00 | 0.00 | 0.00 | 88 | 1013.0 |
| 20260506043551 | 57 | 178 | 20.9 | 29.5 | 0.00 | 0.00 | 0.00 | 87 | 1013.0 |
| 20260506043052 | 57 | 188 | 20.0 | 29.5 | 0.00 | 0.00 | 0.00 | 87 | 1013.0 |
| 20260506042551 | 57 | 209 | 20.0 | 33.0 | 0.00 | 0.00 | 0.00 | 87 | 1013.0 |
| 20260506042051 | 57 | 198 | 20.9 | 33.0 | 0.00 | 0.00 | 0.00 | 87 | 1012.9 |
| 20260506041551 | 57 | 194 | 20.0 | 30.4 | 0.00 | 0.00 | 0.00 | 87 | 1012.8 |
| 20260506041050 | 57 | 198 | 20.9 | 29.5 | 0.00 | 0.00 | 0.00 | 87 | 1013.0 |
| 20260506040549 | 57 | 215 | 20.9 | 27.8 | 0.00 | 0.00 | 0.00 | 87 | 1013.0 |
| 20260506040048 | 57 | 209 | 21.7 | 31.3 | 0.00 | 0.00 | 0.00 | 87 | 1013.0 |
| 20260506035550 | 57 | 207 | 22.6 | 31.3 | 0.00 | 0.00 | 0.00 | 87 | 1013.0 |
| 20260506035048 | 57 | 208 | 20.9 | 29.5 | 0.00 | 0.00 | 0.00 | 87 | 1013.0 |
| 20260506034559 | 57 | 201 | 22.6 | 29.5 | 0.00 | 0.00 | 0.00 | 86 | 1012.9 |
| 20260506034046 | 57 | 222 | 21.7 | 29.5 | 0.00 | 0.00 | 0.00 | 86 | 1012.9 |
| 20260506033547 | 57 | 187 | 20.0 | 27.8 | 0.00 | 0.00 | 0.00 | 86 | 1012.9 |
| 20260506033047 | 58 | 204 | 20.0 | 30.4 | 0.00 | 0.00 | 0.00 | 86 | 1012.9 |
| 20260506032550 | 58 | 198 | 20.0 | 30.4 | 0.00 | 0.00 | 0.00 | 86 | 1012.8 |
| 20260506032049 | 58 | 205 | 21.7 | 30.4 | 0.00 | 0.00 | 0.00 | 86 | 1012.8 |
| 20260506031547 | 58 | 160 | 21.7 | 33.0 | 0.00 | 0.00 | 0.00 | 85 | 1012.8 |
| 20260506031046 | 58 | 213 | 20.0 | 33.0 | 0.00 | 0.00 | 0.00 | 85 | 1012.8 |
| 20260506030546 | 58 | 242 | 20.0 | 28.7 | 0.00 | 0.00 | 0.00 | 85 | 1012.8 |
| 20260506030046 | 58 | 169 | 20.9 | 32.2 | 0.00 | 0.00 | 0.00 | 86 | 1012.8 |
| 20260506025549 | 58 | 233 | 19.1 | 32.2 | 0.00 | 0.00 | 0.00 | 86 | 1012.9 |
| 20260506025044 | 58 | 192 | 18.2 | 28.7 | 0.00 | 0.00 | 0.00 | 85 | 1012.9 |
| 20260506024602 | 58 | 236 | 19.1 | 30.4 | 0.00 | 0.00 | 0.00 | 85 | 1012.9 |
| 20260506024044 | 58 | 219 | 20.9 | 30.4 | 0.00 | 0.00 | 0.00 | 85 | 1012.8 |
| 20260506023543 | 58 | 205 | 17.4 | 27.8 | 0.00 | 0.00 | 0.00 | 86 | 1012.9 |
| 20260506023044 | 58 | 206 | 18.2 | 27.8 | 0.00 | 0.00 | 0.00 | 86 | 1012.8 |
| 20260506022543 | 58 | 204 | 19.1 | 31.3 | 0.00 | 0.00 | 0.00 | 85 | 1012.9 |
| 20260506022043 | 58 | 202 | 20.9 | 31.3 | 0.00 | 0.00 | 0.00 | 85 | 1012.9 |
| 20260506021545 | 58 | 192 | 19.1 | 37.4 | 0.00 | 0.00 | 0.00 | 85 | 1012.8 |
| 20260506021042 | 58 | 198 | 22.6 | 33.0 | 0.00 | 0.00 | 0.00 | 85 | 1012.9 |
| 20260506020541 | 58 | 197 | 20.9 | 30.4 | 0.00 | 0.00 | 0.00 | 85 | 1012.9 |
| 20260506020042 | 58 | 184 | 20.0 | 30.4 | 0.00 | 0.00 | 0.00 | 85 | 1013.0 |
| 20260506015546 | 58 | 188 | 19.1 | 28.7 | 0.00 | 0.00 | 0.00 | 85 | 1012.8 |
| 20260506015042 | 58 | 201 | 20.9 | 27.8 | 0.00 | 0.00 | 0.00 | 85 | 1012.9 |
| 20260506014546 | 58 | 238 | 19.1 | 28.7 | 0.00 | 0.00 | 0.00 | 84 | 1012.8 |
| 20260506014045 | 58 | 195 | 20.0 | 28.7 | 0.00 | 0.00 | 0.00 | 84 | 1012.7 |
| 20260506013544 | 58 | 209 | 20.9 | 28.7 | 0.00 | 0.00 | 0.00 | 84 | 1012.7 |
| 20260506013058 | 58 | 240 | 20.9 | 28.7 | 0.00 | 0.00 | 0.00 | 84 | 1012.5 |
| 20260506012541 | 58 | 200 | 18.2 | 26.1 | 0.00 | 0.00 | 0.00 | 84 | 1012.7 |
| 20260506012041 | 58 | 200 | 18.2 | 26.1 | 0.00 | 0.00 | 0.00 | 83 | 1012.6 |
| 20260506011542 | 59 | 177 | 19.1 | 26.9 | 0.00 | 0.00 | 0.00 | 82 | 1012.6 |
| 20260506011040 | 59 | 222 | 20.0 | 28.7 | 0.00 | 0.00 | 0.00 | 82 | 1012.6 |
| 20260506010540 | 59 | 190 | 20.9 | 28.7 | 0.00 | 0.00 | 0.00 | 82 | 1012.4 |
| 20260506010040 | 59 | 192 | 20.9 | 30.4 | 0.00 | 0.00 | 0.00 | 83 | 1012.4 |
| 20260506005540 | 59 | 204 | 22.6 | 30.4 | 0.00 | 0.00 | 0.00 | 83 | 1012.3 |
| 20260506005038 | 59 | 190 | 20.0 | 30.4 | 0.00 | 0.00 | 0.00 | 82 | 1012.1 |
| 20260506004539 | 59 | 202 | 22.6 | 30.4 | 0.00 | 0.00 | 0.00 | 82 | 1012.1 |
| 20260506004039 | 60 | 187 | 21.7 | 33.0 | 0.00 | 0.00 | 0.00 | 81 | 1012.1 |
| 20260506003538 | 60 | 191 | 21.7 | 33.0 | 0.00 | 0.00 | 0.00 | 81 | 1012.0 |
| 20260506003039 | 60 | 203 | 21.7 | 31.3 | 0.00 | 0.00 | 0.00 | 81 | 1011.9 |
| 20260506002538 | 59 | 214 | 20.0 | 31.3 | 0.00 | 0.00 | 0.00 | 81 | 1011.8 |
| 20260506002042 | 59 | 228 | 21.7 | 33.0 | 0.00 | 0.00 | 0.00 | 81 | 1011.8 |
| 20260506001541 | 60 | 242 | 20.9 | 33.0 | 0.00 | 0.00 | 0.00 | 80 | 1011.8 |
| 20260506001038 | 60 | 209 | 21.7 | 33.0 | 0.00 | 0.00 | 0.00 | 79 | 1011.7 |
| 20260506000537 | 61 | 160 | 20.0 | 33.0 | 0.00 | 0.00 | 0.00 | 79 | 1011.5 |
| 20260506000037 | 61 | 215 | 21.7 | 33.0 | 0.00 | 0.00 | 0.00 | 79 | 1011.5 |
| 20260505235537 | 61 | 178 | 20.9 | 37.4 | 0.00 | 0.00 | 0.00 | 79 | 1011.4 |
| 20260505235036 | 61 | 215 | 18.2 | 37.4 | 0.00 | 0.00 | 0.00 | 80 | 1011.3 |
| 20260505234537 | 60 | 224 | 20.9 | 35.6 | 0.00 | 0.00 | 0.00 | 80 | 1011.3 |
| 20260505234036 | 60 | 226 | 21.7 | 35.6 | 0.00 | 0.00 | 0.00 | 80 | 1011.1 |
| 20260505233536 | 60 | 192 | 21.7 | 35.6 | 0.00 | 0.00 | 0.00 | 80 | 1011.0 |
| 20260505233035 | 60 | 195 | 24.3 | 34.8 | 0.00 | 0.00 | 0.00 | 80 | 1010.9 |
| 20260505232535 | 60 | 203 | 25.2 | 35.6 | 0.00 | 0.00 | 0.00 | 80 | 1010.8 |
| 20260505232035 | 60 | 197 | 22.6 | 35.6 | 0.00 | 0.00 | 0.00 | 80 | 1010.9 |
| 20260505231537 | 60 | 198 | 20.9 | 33.0 | 0.00 | 0.00 | 0.00 | 80 | 1010.9 |
| 20260505231036 | 60 | 190 | 22.6 | 37.4 | 0.00 | 0.00 | 0.00 | 80 | 1010.8 |
| 20260505230534 | 60 | 254 | 25.2 | 37.4 | 0.00 | 0.00 | 0.00 | 80 | 1010.8 |
| 20260505230049 | 60 | 209 | 23.5 | 33.0 | 0.00 | 0.00 | 0.00 | 81 | 1010.8 |
| 20260505225534 | 59 | 198 | 23.5 | 33.0 | 0.00 | 0.00 | 0.00 | 82 | 1010.8 |
| 20260505225038 | 59 | 204 | 22.6 | 34.8 | 0.00 | 0.00 | 0.00 | 83 | 1010.7 |
| 20260505224533 | 59 | 209 | 22.6 | 33.0 | 0.00 | 0.00 | 0.00 | 83 | 1010.8 |
| 20260505224038 | 58 | 204 | 23.5 | 36.5 | 0.00 | 0.00 | 0.00 | 84 | 1010.8 |
| 20260505223532 | 58 | 194 | 23.5 | 35.6 | 0.00 | 0.00 | 0.00 | 83 | 1010.7 |
| 20260505223038 | 59 | 190 | 23.5 | 33.0 | 0.00 | 0.00 | 0.00 | 83 | 1010.5 |
| 20260505222534 | 59 | 200 | 24.3 | 39.1 | 0.00 | 0.00 | 0.00 | 83 | 1010.6 |
| 20260505222034 | 59 | 202 | 24.3 | 37.4 | 0.00 | 0.00 | 0.00 | 83 | 1010.6 |
| 20260505221536 | 59 | 119 | 22.6 | 34.8 | 0.00 | 0.00 | 0.00 | 83 | 1010.6 |
| 20260505221037 | 59 | 189 | 22.6 | 34.8 | 0.00 | 0.00 | 0.00 | 82 | 1010.6 |
| 20260505220532 | 59 | 194 | 21.7 | 34.8 | 0.00 | 0.00 | 0.00 | 82 | 1010.5 |
| 20260505220038 | 59 | 167 | 22.6 | 33.9 | 0.00 | 0.00 | 0.00 | 82 | 1010.4 |
| 20260505215532 | 59 | 219 | 22.6 | 33.9 | 0.00 | 0.00 | 0.00 | 82 | 1010.5 |
| 20260505215031 | 59 | 249 | 26.1 | 34.8 | 0.00 | 0.00 | 0.00 | 82 | 1010.7 |
| 20260505214530 | 59 | 199 | 22.6 | 37.4 | 0.00 | 0.00 | 0.00 | 83 | 1010.5 |
| 20260505214030 | 59 | 188 | 24.3 | 37.4 | 0.00 | 0.00 | 0.00 | 82 | 1010.5 |
| 20260505213530 | 59 | 198 | 22.6 | 36.5 | 0.00 | 0.00 | 0.00 | 82 | 1010.4 |
| 20260505213048 | 59 | 208 | 22.6 | 36.5 | 0.00 | 0.00 | 0.00 | 82 | 1010.3 |
| 20260505212533 | 59 | 185 | 23.5 | 33.9 | 0.00 | 0.00 | 0.00 | 82 | 1010.2 |
| 20260505212030 | 59 | 219 | 24.3 | 34.8 | 0.00 | 0.00 | 0.00 | 82 | 1010.1 |
| 20260505211530 | 59 | 197 | 24.3 | 34.8 | 0.00 | 0.00 | 0.00 | 82 | 1010.1 |
| 20260505211031 | 59 | 195 | 23.5 | 33.0 | 0.00 | 0.00 | 0.00 | 82 | 1010.1 |
| 20260505210533 | 59 | 189 | 25.2 | 35.6 | 0.00 | 0.00 | 0.00 | 82 | 1010.1 |
| 20260505210030 | 59 | 186 | 22.6 | 36.5 | 0.00 | 0.00 | 0.00 | 83 | 1010.3 |
| 20260505205529 | 59 | 204 | 24.3 | 36.5 | 0.00 | 0.00 | 0.00 | 83 | 1010.3 |
| 20260505205027 | 59 | 201 | 24.3 | 33.9 | 0.00 | 0.00 | 0.00 | 83 | 1010.1 |
| 20260505204528 | 59 | 194 | 22.6 | 33.0 | 0.00 | 0.00 | 0.00 | 83 | 1010.2 |
| 20260505204032 | 59 | 174 | 21.7 | 33.0 | 0.00 | 0.00 | 0.00 | 83 | 1010.2 |
| 20260505203528 | 59 | 187 | 20.0 | 33.0 | 0.00 | 0.00 | 0.00 | 83 | 1010.1 |
| 20260505203041 | 59 | 198 | 20.9 | 36.5 | 0.00 | 0.00 | 0.00 | 83 | 1010.1 |
| 20260505202527 | 59 | 229 | 21.7 | 33.9 | 0.00 | 0.00 | 0.00 | 83 | 1010.2 |
| 20260505202027 | 59 | 217 | 20.0 | 33.9 | 0.00 | 0.00 | 0.00 | 83 | 1010.2 |
| 20260505201527 | 59 | 208 | 20.9 | 35.6 | 0.00 | 0.00 | 0.00 | 83 | 1010.3 |
| 20260505201025 | 59 | 182 | 20.0 | 35.6 | 0.00 | 0.00 | 0.00 | 83 | 1010.3 |
| 20260505200527 | 59 | 185 | 20.0 | 31.3 | 0.00 | 0.00 | 0.00 | 83 | 1010.4 |
| 20260505200033 | 59 | 221 | 19.1 | 33.0 | 0.00 | 0.00 | 0.00 | 82 | 1010.5 |
| 20260505195626 | 60 | 226 | 15.6 | 33.0 | 0.00 | 0.00 | 0.00 | 82 | 1010.4 |
| 20260505195023 | 60 | 209 | 20.9 | 32.2 | 0.00 | 0.00 | 0.00 | 82 | 1010.5 |
| 20260505194522 | 60 | 202 | 23.5 | 32.2 | 0.00 | 0.00 | 0.00 | 82 | 1010.6 |
| 20260505194022 | 60 | 192 | 19.1 | 27.8 | 0.00 | 0.00 | 0.00 | 82 | 1010.7 |
| 20260505193522 | 60 | 223 | 19.1 | 32.2 | 0.00 | 0.00 | 0.00 | 82 | 1010.7 |
| 20260505193022 | 60 | 194 | 18.2 | 26.9 | 0.00 | 0.00 | 0.00 | 82 | 1010.9 |
| 20260505192524 | 59 | 213 | 17.4 | 28.7 | 0.00 | 0.00 | 0.00 | 83 | 1011.0 |
| 20260505192020 | 59 | 217 | 19.1 | 27.8 | 0.00 | 0.00 | 0.00 | 83 | 1011.0 |
| 20260505191520 | 59 | 193 | 20.0 | 27.8 | 0.00 | 0.00 | 0.00 | 82 | 1011.1 |
| 20260505191021 | 59 | 213 | 18.2 | 28.7 | 0.00 | 0.00 | 0.00 | 83 | 1011.2 |
| 20260505190522 | 59 | 202 | 20.0 | 31.3 | 0.00 | 0.00 | 0.00 | 83 | 1011.2 |
| 20260505190017 | 59 | 193 | 20.0 | 29.5 | 0.00 | 0.00 | 0.00 | 83 | 1011.4 |
| 20260505185520 | 59 | 198 | 19.1 | 28.7 | 0.00 | 0.00 | 0.00 | 83 | 1011.5 |
| 20260505185015 | 59 | 198 | 16.5 | 26.9 | 0.00 | 0.00 | 0.00 | 84 | 1011.5 |
| 20260505184522 | 59 | 195 | 17.4 | 27.8 | 0.00 | 0.00 | 0.00 | 84 | 1011.7 |
| 20260505184015 | 59 | 208 | 18.2 | 26.9 | 0.00 | 0.00 | 0.00 | 84 | 1011.7 |
| 20260505183514 | 59 | 195 | 18.2 | 27.8 | 0.00 | 0.00 | 0.00 | 83 | 1011.8 |
| 20260505183014 | 59 | 192 | 18.2 | 27.8 | 0.00 | 0.00 | 0.00 | 83 | 1011.8 |
| 20260505182514 | 59 | 208 | 19.1 | 26.1 | 0.00 | 0.00 | 0.00 | 84 | 1011.8 |
| 20260505182013 | 59 | 175 | 18.2 | 26.1 | 0.00 | 0.00 | 0.00 | 84 | 1011.9 |
| 20260505181512 | 59 | 192 | 18.2 | 26.1 | 0.00 | 0.00 | 0.00 | 83 | 1012.0 |
| 20260505181013 | 59 | 180 | 13.9 | 25.2 | 0.00 | 0.00 | 0.00 | 83 | 1012.0 |
| 20260505180518 | 59 | 207 | 16.5 | 26.1 | 0.00 | 0.00 | 0.00 | 83 | 1012.1 |
| 20260505180011 | 59 | 201 | 13.9 | 21.7 | 0.00 | 0.00 | 0.00 | 83 | 1012.1 |
| 20260505175510 | 59 | 205 | 13.9 | 22.6 | 0.00 | 0.00 | 0.00 | 83 | 1012.1 |
| 20260505175010 | 59 | 174 | 11.3 | 19.1 | 0.00 | 0.00 | 0.00 | 83 | 1012.3 |
| 20260505174514 | 60 | 200 | 12.2 | 18.2 | 0.00 | 0.00 | 0.00 | 82 | 1012.4 |
| 20260505174010 | 60 | 197 | 9.6 | 16.5 | 0.00 | 0.00 | 0.00 | 81 | 1012.4 |
| 20260505173514 | 61 | 184 | 5.2 | 11.3 | 0.00 | 0.00 | 0.00 | 81 | 1012.4 |
| 20260505173027 | 60 | 211 | 7.0 | 15.6 | 0.00 | 0.00 | 0.00 | 82 | 1012.5 |
| 20260505172509 | 60 | 219 | 7.0 | 14.8 | 0.00 | 0.00 | 0.00 | 82 | 1012.5 |
| 20260505172009 | 60 | 252 | 8.7 | 14.8 | 0.00 | 0.00 | 0.00 | 82 | 1012.6 |
| 20260505171509 | 60 | 252 | 7.8 | 13.0 | 0.00 | 0.00 | 0.00 | 81 | 1012.7 |
| 20260505171010 | 60 | 203 | 4.3 | 17.4 | 0.00 | 0.00 | 0.00 | 84 | 1012.7 |
| 20260505170509 | 59 | 213 | 8.7 | 17.4 | 0.00 | 0.00 | 0.00 | 83 | 1012.6 |
| 20260505170013 | 59 | 209 | 7.8 | 14.8 | 0.00 | 0.00 | 0.00 | 83 | 1012.7 |
| 20260505165508 | 59 | 187 | 9.6 | 18.2 | 0.00 | 0.00 | 0.00 | 84 | 1012.7 |
| 20260505165008 | 59 | 225 | 9.6 | 16.5 | 0.00 | 0.00 | 0.00 | 83 | 1012.7 |
| 20260505164520 | 59 | 263 | 10.4 | 16.5 | 0.00 | 0.00 | 0.00 | 83 | 1012.8 |
| 20260505164007 | 59 | 236 | 9.6 | 16.5 | 0.00 | 0.00 | 0.00 | 83 | 1012.9 |
| 20260505163508 | 59 | 200 | 10.4 | 16.5 | 0.00 | 0.00 | 0.00 | 83 | 1012.9 |
| 20260505163012 | 60 | 192 | 8.7 | 13.9 | 0.00 | 0.00 | 0.00 | 83 | 1012.8 |
| 20260505162507 | 60 | 204 | 7.8 | 11.3 | 0.00 | 0.00 | 0.00 | 83 | 1012.8 |
| 20260505162006 | 60 | 182 | 5.2 | 13.9 | 0.00 | 0.00 | 0.00 | 82 | 1013.0 |
| 20260505161507 | 59 | 231 | 7.0 | 20.9 | 0.00 | 0.00 | 0.00 | 84 | 1013.0 |
| 20260505161009 | 58 | 215 | 14.8 | 20.0 | 0.00 | 0.00 | 0.00 | 84 | 1013.1 |
| 20260505160506 | 59 | 196 | 11.3 | 16.5 | 0.00 | 0.00 | 0.00 | 83 | 1013.2 |
| 20260505153009 | 60 | 192 | 7.8 | 14.8 | 0.00 | 0.00 | 0.00 | 83 | 1013.4 |
| 20260505152501 | 60 | 199 | 3.5 | 10.4 | 0.00 | 0.00 | 0.00 | 84 | 1013.3 |
| 20260505152003 | 58 | 240 | 6.1 | 13.0 | 0.00 | 0.00 | 0.00 | 86 | 1013.4 |
| 20260505151501 | 58 | 207 | 8.7 | 13.0 | 0.00 | 0.00 | 0.00 | 86 | 1013.5 |
| 20260505151001 | 58 | 213 | 7.0 | 15.6 | 0.00 | 0.00 | 0.00 | 86 | 1013.6 |
| 20260505150501 | 58 | 209 | 11.3 | 15.6 | 0.00 | 0.00 | 0.00 | 86 | 1013.6 |